View from above orbital plane
|
View from above satellite
|
Ground track
|
The orbit data is extracted from the following two-line orbital elements,
1 23439U 94085A 21019.17149084 -.00000037 00000-0 15882-3 0 9992
2 23439 64.8175 257.3946 0156103 2.0748 358.0795 11.27570113 73507
Epoch (UTC): | 19 January 2021 04:06:56 |
Eccentricity: | 0.0156103 |
inclination: | 64.8175° |
perigee height: | 1891 km |
apogee height: | 2153 km |
right ascension of ascending node: | 257.3946° |
argument of perigee: | 2.0748° |
revolutions per day: | 11.27570113 |
mean anomaly at epoch: | 358.0795° |
orbit number at epoch: | 7350 |
The dashed part of the orbit path shows where the satellite is in the earth's shadow,
|
|